EW9427 Weather Reports


Display with metric or nautical units.
time (UTC)temp
F
wind
direction
speed
MPH
gust
MPH
rain 1hr
in
rain 24hr
in
rain mn
in
humidity
%
barometer
mb
20260902121522 50 346 1.0 4.0 0.00 0.00 0.00 76 1008.6
20260902120022 51 225 1.0 5.0 0.00 0.00 0.00 73 1008.8
20260902114523 53 323 2.0 6.0 0.00 0.00 0.00 70 1008.9
20260902113019 52 313 1.0 5.0 0.00 0.00 0.00 74 1009.1
20260902111519 51 273 3.0 10.0 0.00 0.00 0.00 77 1009.2
20260902110019 47 293 1.0 3.0 0.00 0.00 0.00 80 1009.3
20260902104517 46 293 2.0 4.0 0.00 0.00 0.00 80 1009.5
20260902103015 46 292 0.0 3.0 0.00 0.00 0.00 79 1009.0
20260902101516 46 293 1.0 3.0 0.00 0.00 0.00 78 1009.0
20260902100010 47 292 1.0 3.0 0.00 0.00 0.00 78 1009.0
20260902094509 48 293 1.0 4.0 0.00 0.00 0.00 75 1008.7
20260902093005 48 331 3.0 7.0 0.00 0.00 0.00 74 1008.9
20260902091503 48 282 2.0 8.0 0.00 0.00 0.00 77 1009.0
20260902090002 47 290 2.0 4.0 0.00 0.00 0.00 77 1009.3
20260902084605 48 287 1.0 4.0 0.00 0.00 0.00 75 1009.3
20260902083112 49 315 2.0 4.0 0.00 0.00 0.00 74 1009.3
20260902081551 50 314 2.0 4.0 0.00 0.00 0.00 74 1009.3
20260902080047 50 315 0.0 2.0 0.00 0.00 0.00 73 1009.3
20260902074544 51 315 2.0 5.0 0.00 0.00 0.00 71 1009.4
20260902073042 51 279 3.0 4.0 0.00 0.00 0.00 71 1009.4
20260902071538 52 139 1.0 3.0 0.00 0.00 0.00 69 1009.2
20260902070037 55 138 0.0 2.0 0.00 0.00 0.00 65 1009.2
20260902064533 57 139 1.0 2.0 0.00 0.00 0.00 60 1009.4
20260902063027 59 138 1.0 3.0 0.00 0.00 0.00 56 1009.5
20260902061537 60 139 0.0 3.0 0.00 0.00 0.00 53 1009.5
20260902060018 60 139 0.0 1.0 0.00 0.00 0.00 53 1009.6
20260902054522 60 139 0.0 2.0 0.00 0.00 0.00 54 1009.7
20260902053017 60 138 0.0 2.0 0.00 0.00 0.00 54 1009.7
20260902051516 60 139 1.0 4.0 0.00 0.00 0.00 54 1009.7
20260902050016 58 139 2.0 4.0 0.00 0.00 0.00 58 1009.6
20260902044523 56 138 0.0 0.0 0.00 0.00 0.00 62 1009.8
20260902043014 57 139 0.0 2.0 0.00 0.00 0.00 62 1009.8
20260902041514 57 139 1.0 2.0 0.00 0.00 0.00 60 1009.8
20260902040014 60 138 0.0 0.0 0.00 0.00 0.00 54 1009.8
20260902034513 60 139 0.0 0.0 0.00 0.00 0.00 52 1009.8
20260902033012 62 139 0.0 0.0 0.00 0.00 0.00 49 1010.0
20260902031518 63 139 0.0 1.0 0.00 0.00 0.00 46 1009.9
20260902030012 65 138 2.0 4.0 0.00 0.00 0.00 43 1009.9
20260902024512 65 139 1.0 3.0 0.00 0.00 0.00 43 1009.8
20260902023026 67 139 2.0 5.0 0.00 0.00 0.00 40 1009.7
20260902021509 68 138 1.0 3.0 0.00 0.00 0.00 39 1009.8
20260902020018 71 138 0.0 0.0 0.00 0.00 0.00 36 1009.8
20260902014518 73 139 0.0 0.0 0.00 0.00 0.00 34 1009.7
20260902013008 75 138 1.0 4.0 0.00 0.00 0.00 35 1009.7
20260902011507 77 138 3.0 7.0 0.00 0.00 0.00 31 1009.7
20260902010010 78 135 4.0 9.0 0.00 0.00 0.00 31 1009.7
20260902004506 79 122 5.0 11.0 0.00 0.00 0.00 30 1009.8
20260902003005 80 111 8.0 10.0 0.00 0.00 0.00 29 1009.8
20260902001505 80 124 9.0 12.0 0.00 0.00 0.00 29 1009.8
20260902000105 81 107 7.0 12.0 0.00 0.00 0.00 30 1009.9
20260901234501 81 154 6.0 11.0 0.00 0.00 0.00 30 1009.9
20260901233105 81 123 8.0 13.0 0.00 0.00 0.00 30 1010.0
20260901231614 81 167 8.0 12.0 0.00 0.00 0.00 29 1010.2
20260901230109 82 164 7.0 11.0 0.00 0.00 0.00 29 1010.3
20260901224555 81 165 8.0 11.0 0.00 0.00 0.00 29 1010.5
20260901223053 81 148 4.0 10.0 0.00 0.00 0.00 30 1010.7
20260901221612 81 188 8.0 14.0 0.00 0.00 0.00 28 1010.7
20260901214546 80 155 9.0 14.0 0.00 0.00 0.00 29 1011.1
20260901213103 80 156 6.0 13.0 0.00 0.00 0.00 29 1011.2
20260901211543 80 200 3.0 13.0 0.00 0.00 0.00 29 1011.4
20260901210040 79 182 5.0 10.0 0.00 0.00 0.00 31 1011.6
20260901204538 79 159 8.0 15.0 0.00 0.00 0.00 30 1011.7
20260901203040 80 167 10.0 21.0 0.00 0.00 0.00 30 1011.9
20260901201536 79 146 9.0 15.0 0.00 0.00 0.00 31 1012.0
20260901200042 79 146 10.0 15.0 0.00 0.00 0.00 31 1012.1
20260901194533 78 180 10.0 17.0 0.00 0.00 0.00 31 1012.2
20260901193027 77 160 9.0 16.0 0.00 0.00 0.00 32 1012.4
20260901191535 77 150 10.0 17.0 0.00 0.00 0.00 32 1012.5
20260901190025 76 136 9.0 18.0 0.00 0.00 0.00 34 1012.7
20260901184518 76 140 11.0 16.0 0.00 0.00 0.00 36 1012.9
20260901183019 75 167 12.0 16.0 0.00 0.00 0.00 35 1013.1
20260901181519 74 146 11.0 17.0 0.00 0.00 0.00 36 1013.2
20260901180009 74 160 9.0 16.0 0.00 0.00 0.00 39 1013.2
20260901174505 73 146 12.0 18.0 0.00 0.00 0.00 38 1013.4
20260901173001 72 141 11.0 19.0 0.00 0.00 0.00 42 1013.5
20260901171603 71 125 12.0 17.0 0.00 0.00 0.00 41 1013.7
20260901170100 70 146 10.0 16.0 0.00 0.00 0.00 43 1013.7
20260901164609 69 132 11.0 17.0 0.00 0.00 0.00 42 1013.8
20260901163049 68 146 13.0 18.0 0.00 0.00 0.00 45 1013.9
20260901161546 67 122 11.0 16.0 0.00 0.00 0.00 46 1013.9
20260901160103 66 144 11.0 15.0 0.00 0.00 0.00 48 1014.0
20260901154539 65 139 8.0 13.0 0.00 0.00 0.00 50 1014.0
20260901153036 64 167 6.0 9.0 0.00 0.00 0.00 52 1014.2
20260901151539 63 135 3.0 9.0 0.00 0.00 0.00 57 1014.4
20260901150036 62 163 4.0 6.0 0.00 0.00 0.00 56 1014.4
20260901144536 58 288 0.0 2.0 0.00 0.00 0.00 71 1014.4
20260901143024 54 288 2.0 4.0 0.00 0.00 0.00 78 1014.4
20260901141517 51 288 2.0 4.0 0.00 0.00 0.00 79 1014.2
20260901140011 49 288 2.0 4.0 0.00 0.00 0.00 82 1014.1
20260901134508 47 288 2.0 5.0 0.00 0.00 0.00 84 1014.1
20260901133005 45 288 1.0 4.0 0.00 0.00 0.00 85 1014.0
20260901131503 44 288 2.0 4.0 0.00 0.00 0.00 86 1014.0
20260901130058 43 288 3.0 5.0 0.00 0.00 0.00 86 1014.1
20260901124557 42 288 3.0 5.0 0.00 0.00 0.00 86 1014.1
20260901123054 42 288 3.0 5.0 0.00 0.00 0.00 85 1014.1